User: anonymous
Location: Northern Prairie Star Party
(53.2167°N, 112.5333°W)
Time: 00:23:33
(UTC-06:00)
Language:

Cosmos 1005 Rocket - Orbit

View from above orbital plane
View from above orbital plane
View from above satellite
View from above satellite

Ground track
Ground track

The orbit data is extracted from the following two-line orbital elements,

1 10861U 78045B   13319.63457437  .07753388 -95494-6  16914-3 0  5243
2 10861 081.1960 269.3337 0010165 220.6228 139.4349 16.46021697955207
Epoch (UTC): 15 November 2013 15:13:47
Eccentricity: 0.0010165
inclination: 81.1960°
perigee height: 143 km
apogee height: 156 km
right ascension of ascending node: 269.3337°
argument of perigee: 220.6228°
revolutions per day: 16.46021697
mean anomaly at epoch: 139.4349°
orbit number at epoch: 95520

The dashed part of the orbit path shows where the satellite is in the earth's shadow,  

DLR